User: anonymous   Login
Location: Newark
(0.5333°S, 166.9167°E)
Time: 18:34:22
(UTC+00:00)
Language:

XW-2C - Orbit

View from above orbital plane
View from above orbital plane
View from above satellite
View from above satellite

Ground track
Ground track

The orbit data is extracted from the following two-line orbital elements,

1 40906U 15049H   19317.55060058  .00000687  00000-0  39329-4 0  9999
2 40906  97.4722 317.2286 0016221  50.5004  71.0693 15.15819952229394
Epoch (UTC): 13 November 2019 13:12:51
Eccentricity: 0.0016221
inclination: 97.4722°
perigee height: 507 km
apogee height: 529 km
right ascension of ascending node: 317.2286°
argument of perigee: 50.5004°
revolutions per day: 15.15819952
mean anomaly at epoch: 71.0693°
orbit number at epoch: 22939

The dashed part of the orbit path shows where the satellite is in the earth's shadow,  

DLR